Year,Month,Day,Hour,Minute,Value (Times are PST for temperature in C)
2008,08,16,00,00,18.80
2008,08,16,00,01,18.80
2008,08,16,00,02,18.80
2008,08,16,00,03,18.80
2008,08,16,00,04,18.80
2008,08,16,00,05,18.80
2008,08,16,00,06,18.80
2008,08,16,00,07,18.70
2008,08,16,00,08,18.70
2008,08,16,00,09,18.70
2008,08,16,00,10,18.70
2008,08,16,00,11,18.70
2008,08,16,00,12,18.70
2008,08,16,00,13,18.70
2008,08,16,00,14,18.60
2008,08,16,00,15,18.60
2008,08,16,00,16,18.60
2008,08,16,00,17,18.60
2008,08,16,00,18,18.60
2008,08,16,00,19,18.60
2008,08,16,00,20,18.60
2008,08,16,00,21,18.60
2008,08,16,00,22,18.60
2008,08,16,00,23,18.60
2008,08,16,00,24,18.50
2008,08,16,00,25,18.50
2008,08,16,00,26,18.50
2008,08,16,00,27,18.40
2008,08,16,00,28,18.40
2008,08,16,00,29,18.40
2008,08,16,00,30,18.40
2008,08,16,00,31,18.40
2008,08,16,00,32,18.40
2008,08,16,00,33,18.40
2008,08,16,00,34,18.40
2008,08,16,00,35,18.40
2008,08,16,00,36,18.40
2008,08,16,00,37,18.40
2008,08,16,00,38,18.40
2008,08,16,00,39,18.30
2008,08,16,00,40,18.30
2008,08,16,00,41,18.30
2008,08,16,00,42,18.30
2008,08,16,00,43,18.30
2008,08,16,00,44,18.30
2008,08,16,00,45,18.30
2008,08,16,00,46,18.30
2008,08,16,00,47,18.30
2008,08,16,00,48,18.30
2008,08,16,00,49,18.30
2008,08,16,00,50,18.30
2008,08,16,00,51,18.30
2008,08,16,00,52,18.30
2008,08,16,00,53,18.30
2008,08,16,00,54,18.30
2008,08,16,00,55,18.30
2008,08,16,00,56,18.30
2008,08,16,00,57,18.30
2008,08,16,00,58,18.30
2008,08,16,00,59,18.30
2008,08,16,01,00,18.30
2008,08,16,01,01,18.30
2008,08,16,01,02,18.30
2008,08,16,01,03,18.30
2008,08,16,01,04,18.30
2008,08,16,01,05,18.30
2008,08,16,01,06,18.30
2008,08,16,01,07,18.30
2008,08,16,01,08,18.20
2008,08,16,01,09,18.20
2008,08,16,01,10,18.20
2008,08,16,01,11,18.20
2008,08,16,01,12,18.20
2008,08,16,01,13,18.20
2008,08,16,01,14,18.20
2008,08,16,01,15,18.20
2008,08,16,01,16,18.20
2008,08,16,01,17,18.20
2008,08,16,01,18,18.20
2008,08,16,01,19,18.20
2008,08,16,01,20,18.20
2008,08,16,01,21,18.20
2008,08,16,01,22,18.20
2008,08,16,01,23,18.20
2008,08,16,01,24,18.20
2008,08,16,01,25,18.20
2008,08,16,01,26,18.20
2008,08,16,01,27,18.20
2008,08,16,01,28,18.20
2008,08,16,01,29,18.20
2008,08,16,01,30,18.20
2008,08,16,01,31,18.20
2008,08,16,01,32,18.20
2008,08,16,01,33,18.20
2008,08,16,01,34,18.20
2008,08,16,01,35,18.20
2008,08,16,01,36,18.10
2008,08,16,01,37,18.10
2008,08,16,01,38,18.10
2008,08,16,01,39,18.10
2008,08,16,01,40,18.10
2008,08,16,01,41,18.10
2008,08,16,01,42,18.10
2008,08,16,01,43,18.10
2008,08,16,01,44,18.10
2008,08,16,01,45,18.10
2008,08,16,01,46,18.10
2008,08,16,01,47,18.10
2008,08,16,01,48,18.10
2008,08,16,01,49,18.10
2008,08,16,01,50,18.10
2008,08,16,01,51,18.10
2008,08,16,01,52,18.10
2008,08,16,01,53,18.10
2008,08,16,01,54,18.10
2008,08,16,01,55,18.00
2008,08,16,01,56,18.00
2008,08,16,01,57,18.00
2008,08,16,01,58,18.00
2008,08,16,01,59,18.00
2008,08,16,02,00,18.00
2008,08,16,02,01,18.00
2008,08,16,02,02,18.00
2008,08,16,02,03,18.00
2008,08,16,02,04,18.00
2008,08,16,02,05,18.00
2008,08,16,02,06,18.00
2008,08,16,02,07,18.00
2008,08,16,02,08,18.00
2008,08,16,02,09,17.90
2008,08,16,02,10,17.90
2008,08,16,02,11,17.90
2008,08,16,02,12,17.90
2008,08,16,02,13,17.90
2008,08,16,02,14,17.90
2008,08,16,02,15,17.90
2008,08,16,02,16,17.90
2008,08,16,02,17,17.90
2008,08,16,02,18,17.90
2008,08,16,02,19,17.90
2008,08,16,02,20,17.90
2008,08,16,02,21,17.90
2008,08,16,02,22,17.90
2008,08,16,02,23,17.90
2008,08,16,02,24,17.90
2008,08,16,02,25,17.90
2008,08,16,02,26,17.90
2008,08,16,02,27,17.90
2008,08,16,02,28,17.90
2008,08,16,02,29,17.90
2008,08,16,02,30,17.90
2008,08,16,02,31,17.90
2008,08,16,02,32,17.80
2008,08,16,02,33,17.80
2008,08,16,02,34,17.80
2008,08,16,02,35,17.80
2008,08,16,02,36,17.80
2008,08,16,02,37,17.80
2008,08,16,02,38,17.80
2008,08,16,02,39,17.80
2008,08,16,02,40,17.80
2008,08,16,02,41,17.80
2008,08,16,02,42,17.80
2008,08,16,02,43,17.80
2008,08,16,02,44,17.80
2008,08,16,02,45,17.80
2008,08,16,02,46,17.80
2008,08,16,02,47,17.80
2008,08,16,02,48,17.80
2008,08,16,02,49,17.80
2008,08,16,02,50,17.80
2008,08,16,02,51,17.80
2008,08,16,02,52,17.80
2008,08,16,02,53,17.80
2008,08,16,02,54,17.80
2008,08,16,02,55,17.70
2008,08,16,02,56,17.70
2008,08,16,02,57,17.70
2008,08,16,02,58,17.70
2008,08,16,02,59,17.70
2008,08,16,03,00,17.70
2008,08,16,03,01,17.70
2008,08,16,03,02,17.70
2008,08,16,03,03,17.70
2008,08,16,03,04,17.70
2008,08,16,03,05,17.70
2008,08,16,03,06,17.70
2008,08,16,03,07,17.70
2008,08,16,03,08,17.70
2008,08,16,03,09,17.70
2008,08,16,03,10,17.70
2008,08,16,03,11,17.70
2008,08,16,03,12,17.70
2008,08,16,03,13,17.70
2008,08,16,03,14,17.70
2008,08,16,03,15,17.70
2008,08,16,03,16,17.70
2008,08,16,03,17,17.70
2008,08,16,03,18,17.70
2008,08,16,03,19,17.70
2008,08,16,03,20,17.70
2008,08,16,03,21,17.60
2008,08,16,03,22,17.60
2008,08,16,03,23,17.60
2008,08,16,03,24,17.60
2008,08,16,03,25,17.60
2008,08,16,03,26,17.60
2008,08,16,03,27,17.60
2008,08,16,03,28,17.60
2008,08,16,03,29,17.60
2008,08,16,03,30,17.60
2008,08,16,03,31,17.60
2008,08,16,03,32,17.60
2008,08,16,03,33,17.60
2008,08,16,03,34,17.60
2008,08,16,03,35,17.60
2008,08,16,03,36,17.60
2008,08,16,03,37,17.60
2008,08,16,03,38,17.60
2008,08,16,03,39,17.60
2008,08,16,03,40,17.60
2008,08,16,03,41,17.60
2008,08,16,03,42,17.60
2008,08,16,03,43,17.60
2008,08,16,03,44,17.50
2008,08,16,03,45,17.50
2008,08,16,03,46,17.50
2008,08,16,03,47,17.50
2008,08,16,03,48,17.50
2008,08,16,03,49,17.50
2008,08,16,03,50,17.50
2008,08,16,03,51,17.50
2008,08,16,03,52,17.50
2008,08,16,03,53,17.50
2008,08,16,03,54,17.40
2008,08,16,03,55,17.40
2008,08,16,03,56,17.40
2008,08,16,03,57,17.40
2008,08,16,03,58,17.40
2008,08,16,03,59,17.40
2008,08,16,04,00,17.40
2008,08,16,04,01,17.40
2008,08,16,04,02,17.40
2008,08,16,04,03,17.40
2008,08,16,04,04,17.40
2008,08,16,04,05,17.30
2008,08,16,04,06,17.30
2008,08,16,04,07,17.30
2008,08,16,04,08,17.30
2008,08,16,04,09,17.30
2008,08,16,04,10,17.30
2008,08,16,04,11,17.30
2008,08,16,04,12,17.30
2008,08,16,04,13,17.30
2008,08,16,04,14,17.30
2008,08,16,04,15,17.30
2008,08,16,04,16,17.20
2008,08,16,04,17,17.20
2008,08,16,04,18,17.20
2008,08,16,04,19,17.20
2008,08,16,04,20,17.20
2008,08,16,04,21,17.20
2008,08,16,04,22,17.20
2008,08,16,04,23,17.20
2008,08,16,04,24,17.20
2008,08,16,04,25,17.20
2008,08,16,04,26,17.20
2008,08,16,04,27,17.10
2008,08,16,04,28,17.10
2008,08,16,04,29,17.10
2008,08,16,04,30,17.10
2008,08,16,04,31,17.10
2008,08,16,04,32,17.10
2008,08,16,04,33,17.10
2008,08,16,04,34,17.10
2008,08,16,04,35,17.10
2008,08,16,04,36,17.10
2008,08,16,04,37,17.10
2008,08,16,04,38,17.10
2008,08,16,04,39,17.00
2008,08,16,04,40,17.00
2008,08,16,04,41,17.00
2008,08,16,04,42,17.00
2008,08,16,04,43,17.00
2008,08,16,04,44,17.00
2008,08,16,04,45,16.90
2008,08,16,04,46,16.90
2008,08,16,04,47,16.90
2008,08,16,04,48,16.90
2008,08,16,04,49,16.90
2008,08,16,04,50,16.90
2008,08,16,04,51,16.90
2008,08,16,04,52,16.90
2008,08,16,04,53,16.90
2008,08,16,04,54,16.90
2008,08,16,04,55,16.80
2008,08,16,04,56,16.80
2008,08,16,04,57,16.80
2008,08,16,04,58,16.80
2008,08,16,04,59,16.80
2008,08,16,05,00,16.80
2008,08,16,05,01,16.80
2008,08,16,05,02,16.80
2008,08,16,05,03,16.80
2008,08,16,05,04,16.80
2008,08,16,05,05,16.80
2008,08,16,05,06,16.80
2008,08,16,05,07,16.80
2008,08,16,05,08,16.70
2008,08,16,05,09,16.70
2008,08,16,05,10,16.70
2008,08,16,05,11,16.70
2008,08,16,05,12,16.70
2008,08,16,05,13,16.70
2008,08,16,05,14,16.70
2008,08,16,05,15,16.70
2008,08,16,05,16,16.70
2008,08,16,05,17,16.60
2008,08,16,05,18,16.60
2008,08,16,05,19,16.60
2008,08,16,05,20,16.60
2008,08,16,05,21,16.60
2008,08,16,05,22,16.60
2008,08,16,05,23,16.50
2008,08,16,05,24,16.50
2008,08,16,05,25,16.50
2008,08,16,05,26,16.50
2008,08,16,05,27,16.50
2008,08,16,05,28,16.40
2008,08,16,05,29,16.40
2008,08,16,05,30,16.40
2008,08,16,05,31,16.40
2008,08,16,05,32,16.40
2008,08,16,05,33,16.40
2008,08,16,05,34,16.40
2008,08,16,05,35,16.40
2008,08,16,05,36,16.40
2008,08,16,05,37,16.40
2008,08,16,05,38,16.40
2008,08,16,05,39,16.40
2008,08,16,05,40,16.40
2008,08,16,05,41,16.40
2008,08,16,05,42,16.40
2008,08,16,05,43,16.40
2008,08,16,05,44,16.40
2008,08,16,05,45,16.40
2008,08,16,05,46,16.40
2008,08,16,05,47,16.40
2008,08,16,05,48,16.30
2008,08,16,05,49,16.30
2008,08,16,05,50,16.30
2008,08,16,05,51,16.30
2008,08,16,05,52,16.30
2008,08,16,05,53,16.30
2008,08,16,05,54,16.30
2008,08,16,05,55,16.30
2008,08,16,05,56,16.30
2008,08,16,05,57,16.30
2008,08,16,05,58,16.30
2008,08,16,05,59,16.20
2008,08,16,06,00,16.20
2008,08,16,06,01,16.20
2008,08,16,06,02,16.20
2008,08,16,06,03,16.20
2008,08,16,06,04,16.20
2008,08,16,06,05,16.20
2008,08,16,06,06,16.20
2008,08,16,06,07,16.20
2008,08,16,06,08,16.20
2008,08,16,06,09,16.20
2008,08,16,06,10,16.20
2008,08,16,06,11,16.20
2008,08,16,06,12,16.20
2008,08,16,06,13,16.20
2008,08,16,06,14,16.20
2008,08,16,06,15,16.20
2008,08,16,06,16,16.20
2008,08,16,06,17,16.20
2008,08,16,06,18,16.10
2008,08,16,06,19,16.10
2008,08,16,06,20,16.10
2008,08,16,06,21,16.10
2008,08,16,06,22,16.10
2008,08,16,06,23,16.10
2008,08,16,06,24,16.10
2008,08,16,06,25,16.10
2008,08,16,06,26,16.10
2008,08,16,06,27,16.10
2008,08,16,06,28,16.10
2008,08,16,06,29,16.10
2008,08,16,06,30,16.10
2008,08,16,06,31,16.10
2008,08,16,06,32,16.10
2008,08,16,06,33,16.10
2008,08,16,06,34,16.10
2008,08,16,06,35,16.10
2008,08,16,06,36,16.10
2008,08,16,06,37,16.10
2008,08,16,06,38,16.10
2008,08,16,06,39,16.10
2008,08,16,06,40,16.10
2008,08,16,06,41,16.10
2008,08,16,06,42,16.10
2008,08,16,06,43,16.10
2008,08,16,06,44,16.10
2008,08,16,06,45,16.00
2008,08,16,06,46,16.00
2008,08,16,06,47,16.00
2008,08,16,06,48,16.00
2008,08,16,06,49,16.10
2008,08,16,06,50,16.10
2008,08,16,06,51,16.10
2008,08,16,06,52,16.10
2008,08,16,06,53,16.10
2008,08,16,06,54,16.10
2008,08,16,06,55,16.10
2008,08,16,06,56,16.00
2008,08,16,06,57,16.10
2008,08,16,06,58,16.10
2008,08,16,06,59,16.10
2008,08,16,07,00,16.00
2008,08,16,07,01,16.10
2008,08,16,07,02,16.10
2008,08,16,07,03,16.10
2008,08,16,07,04,16.10
2008,08,16,07,05,16.10
2008,08,16,07,06,16.10
2008,08,16,07,07,16.10
2008,08,16,07,08,16.10
2008,08,16,07,09,16.10
2008,08,16,07,10,16.10
2008,08,16,07,11,16.10
2008,08,16,07,12,16.10
2008,08,16,07,13,16.10
2008,08,16,07,14,16.20
2008,08,16,07,15,16.20
2008,08,16,07,16,16.20
2008,08,16,07,17,16.20
2008,08,16,07,18,16.20
2008,08,16,07,19,16.20
2008,08,16,07,20,16.20
2008,08,16,07,21,16.20
2008,08,16,07,22,16.20
2008,08,16,07,23,16.20
2008,08,16,07,24,16.20
2008,08,16,07,25,16.20
2008,08,16,07,26,16.20
2008,08,16,07,27,16.20
2008,08,16,07,28,16.20
2008,08,16,07,29,16.30
2008,08,16,07,30,16.30
2008,08,16,07,31,16.30
2008,08,16,07,32,16.30
2008,08,16,07,33,16.30
2008,08,16,07,34,16.30
2008,08,16,07,35,16.30
2008,08,16,07,36,16.30
2008,08,16,07,37,16.30
2008,08,16,07,38,16.40
2008,08,16,07,39,16.40
2008,08,16,07,40,16.40
2008,08,16,07,41,16.40
2008,08,16,07,42,16.40
2008,08,16,07,43,16.50
2008,08,16,07,44,16.50
2008,08,16,07,45,16.60
2008,08,16,07,46,16.60
2008,08,16,07,47,16.70
2008,08,16,07,48,16.70
2008,08,16,07,49,16.80
2008,08,16,07,50,16.80
2008,08,16,07,51,16.80
2008,08,16,07,52,16.90
2008,08,16,07,53,16.90
2008,08,16,07,54,17.00
2008,08,16,07,55,17.00
2008,08,16,07,56,17.10
2008,08,16,07,57,17.10
2008,08,16,07,58,17.10
2008,08,16,07,59,17.20
2008,08,16,08,00,17.20
2008,08,16,08,01,17.20
2008,08,16,08,02,17.30
2008,08,16,08,03,17.30
2008,08,16,08,04,17.30
2008,08,16,08,05,17.30
2008,08,16,08,06,17.40
2008,08,16,08,07,17.40
2008,08,16,08,08,17.40
2008,08,16,08,09,17.40
2008,08,16,08,10,17.50
2008,08,16,08,11,17.60
2008,08,16,08,12,17.60
2008,08,16,08,13,17.60
2008,08,16,08,14,17.70
2008,08,16,08,15,17.80
2008,08,16,08,16,17.80
2008,08,16,08,17,17.90
2008,08,16,08,18,18.00
2008,08,16,08,19,18.10
2008,08,16,08,20,18.20
2008,08,16,08,21,18.30
2008,08,16,08,22,18.40
2008,08,16,08,23,18.50
2008,08,16,08,24,18.60
2008,08,16,08,25,18.70
2008,08,16,08,26,18.90
2008,08,16,08,27,19.00
2008,08,16,08,28,19.10
2008,08,16,08,29,19.30
2008,08,16,08,30,19.40
2008,08,16,08,31,19.60
2008,08,16,08,32,19.80
2008,08,16,08,33,19.90
2008,08,16,08,34,20.10
2008,08,16,08,35,20.20
2008,08,16,08,36,20.30
2008,08,16,08,37,20.50
2008,08,16,08,38,20.60
2008,08,16,08,39,20.70
2008,08,16,08,40,20.90
2008,08,16,08,41,21.10
2008,08,16,08,42,21.20
2008,08,16,08,43,21.30
2008,08,16,08,44,21.40
2008,08,16,08,45,21.60
2008,08,16,08,46,21.70
2008,08,16,08,47,21.80
2008,08,16,08,48,21.80
2008,08,16,08,49,21.90
2008,08,16,08,50,22.00
2008,08,16,08,51,22.10
2008,08,16,08,52,22.20
2008,08,16,08,53,22.30
2008,08,16,08,54,22.40
2008,08,16,08,55,22.40
2008,08,16,08,56,22.50
2008,08,16,08,57,22.60
2008,08,16,08,58,22.70
2008,08,16,08,59,22.80
2008,08,16,09,00,22.90
2008,08,16,09,01,23.00
2008,08,16,09,02,23.10
2008,08,16,09,03,23.10
2008,08,16,09,04,23.20
2008,08,16,09,05,23.20
2008,08,16,09,06,23.30
2008,08,16,09,07,23.30
2008,08,16,09,08,23.30
2008,08,16,09,09,23.40
2008,08,16,09,10,23.50
2008,08,16,09,11,23.50
2008,08,16,09,12,23.60
2008,08,16,09,13,23.70
2008,08,16,09,14,23.70
2008,08,16,09,15,23.80
2008,08,16,09,16,23.90
2008,08,16,09,17,23.90
2008,08,16,09,18,24.00
2008,08,16,09,19,24.10
2008,08,16,09,20,24.10
2008,08,16,09,21,24.10
2008,08,16,09,22,24.10
2008,08,16,09,23,24.20
2008,08,16,09,24,24.20
2008,08,16,09,25,24.20
2008,08,16,09,26,24.20
2008,08,16,09,27,24.20
2008,08,16,09,28,24.20
2008,08,16,09,29,24.30
2008,08,16,09,30,24.30
2008,08,16,09,31,24.30
2008,08,16,09,32,24.30
2008,08,16,09,33,24.40
2008,08,16,09,34,24.40
2008,08,16,09,35,24.40
2008,08,16,09,36,24.40
2008,08,16,09,37,24.40
2008,08,16,09,38,24.40
2008,08,16,09,39,24.50
2008,08,16,09,40,24.60
2008,08,16,09,41,24.60
2008,08,16,09,42,24.60
2008,08,16,09,43,24.70
2008,08,16,09,44,24.70
2008,08,16,09,45,24.80
2008,08,16,09,46,24.80
2008,08,16,09,47,24.90
2008,08,16,09,48,25.00
2008,08,16,09,49,25.00
2008,08,16,09,50,25.10
2008,08,16,09,51,25.10
2008,08,16,09,52,25.10
2008,08,16,09,53,25.20
2008,08,16,09,54,25.20
2008,08,16,09,55,25.20
2008,08,16,09,56,25.30
2008,08,16,09,57,25.30
2008,08,16,09,58,25.30
2008,08,16,09,59,25.30
2008,08,16,10,00,25.30
2008,08,16,10,01,25.30
2008,08,16,10,02,25.40
2008,08,16,10,03,25.40
2008,08,16,10,04,25.40
2008,08,16,10,05,25.50
2008,08,16,10,06,25.50
2008,08,16,10,07,25.50
2008,08,16,10,08,25.60
2008,08,16,10,09,25.60
2008,08,16,10,10,25.70
2008,08,16,10,11,25.70
2008,08,16,10,12,25.80
2008,08,16,10,13,25.80
2008,08,16,10,14,25.90
2008,08,16,10,15,25.90
2008,08,16,10,16,25.90
2008,08,16,10,17,25.90
2008,08,16,10,18,25.90
2008,08,16,10,19,25.90
2008,08,16,10,20,26.00
2008,08,16,10,21,26.00
2008,08,16,10,22,26.10
2008,08,16,10,23,26.10
2008,08,16,10,24,26.10
2008,08,16,10,25,26.10
2008,08,16,10,26,26.10
2008,08,16,10,27,26.10
2008,08,16,10,28,26.10
2008,08,16,10,29,26.10
2008,08,16,10,30,26.10
2008,08,16,10,31,26.10
2008,08,16,10,32,26.10
2008,08,16,10,33,26.10
2008,08,16,10,34,26.10
2008,08,16,10,35,26.10
2008,08,16,10,36,26.10
2008,08,16,10,37,26.10
2008,08,16,10,38,26.10
2008,08,16,10,39,26.10
2008,08,16,10,40,26.10
2008,08,16,10,41,26.10
2008,08,16,10,42,26.10
2008,08,16,10,43,26.10
2008,08,16,10,44,26.10
2008,08,16,10,45,26.20
2008,08,16,10,46,26.20
2008,08,16,10,47,26.30
2008,08,16,10,48,26.30
2008,08,16,10,49,26.40
2008,08,16,10,50,26.40
2008,08,16,10,51,26.50
2008,08,16,10,52,26.50
2008,08,16,10,53,26.60
2008,08,16,10,54,26.60
2008,08,16,10,55,26.60
2008,08,16,10,56,26.60
2008,08,16,10,57,26.60
2008,08,16,10,58,26.70
2008,08,16,10,59,26.70
2008,08,16,11,00,26.60
2008,08,16,11,01,26.70
2008,08,16,11,02,26.70
2008,08,16,11,03,26.70
2008,08,16,11,04,26.70
2008,08,16,11,05,26.70
2008,08,16,11,06,26.70
2008,08,16,11,07,26.80
2008,08,16,11,08,26.80
2008,08,16,11,09,26.80
2008,08,16,11,10,26.80
2008,08,16,11,11,26.80
2008,08,16,11,12,26.80
2008,08,16,11,13,26.80
2008,08,16,11,14,26.80
2008,08,16,11,15,26.80
2008,08,16,11,16,26.90
2008,08,16,11,17,26.90
2008,08,16,11,18,27.00
2008,08,16,11,19,27.10
2008,08,16,11,20,27.10
2008,08,16,11,21,27.10
2008,08,16,11,22,27.10
2008,08,16,11,23,27.10
2008,08,16,11,24,27.10
2008,08,16,11,25,27.20
2008,08,16,11,26,27.20
2008,08,16,11,27,27.20
2008,08,16,11,28,27.30
2008,08,16,11,29,27.30
2008,08,16,11,30,27.30
2008,08,16,11,31,27.40
2008,08,16,11,32,27.40
2008,08,16,11,33,27.50
2008,08,16,11,34,27.50
2008,08,16,11,35,27.60
2008,08,16,11,36,27.60
2008,08,16,11,37,27.60
2008,08,16,11,38,27.70
2008,08,16,11,39,27.60
2008,08,16,11,40,27.60
2008,08,16,11,41,27.70
2008,08,16,11,42,27.70
2008,08,16,11,43,27.70
2008,08,16,11,44,27.70
2008,08,16,11,45,27.80
2008,08,16,11,46,27.80
2008,08,16,11,47,27.80
2008,08,16,11,48,27.90
2008,08,16,11,49,27.90
2008,08,16,11,50,28.00
2008,08,16,11,51,28.10
2008,08,16,11,52,28.10
2008,08,16,11,53,28.20
2008,08,16,11,54,28.30
2008,08,16,11,55,28.30
2008,08,16,11,56,28.30
2008,08,16,11,57,28.40
2008,08,16,11,58,28.40
2008,08,16,11,59,28.40
2008,08,16,12,00,28.50
2008,08,16,12,01,28.50
2008,08,16,12,02,28.60
2008,08,16,12,03,28.60
2008,08,16,12,04,28.70
2008,08,16,12,05,28.80
2008,08,16,12,06,28.80
2008,08,16,12,07,28.90
2008,08,16,12,08,28.90
2008,08,16,12,09,28.90
2008,08,16,12,10,29.00
2008,08,16,12,11,29.00
2008,08,16,12,12,29.10
2008,08,16,12,13,29.10
2008,08,16,12,14,29.10
2008,08,16,12,15,29.20
2008,08,16,12,16,29.30
2008,08,16,12,17,29.30
2008,08,16,12,18,29.30
2008,08,16,12,19,29.30
2008,08,16,12,20,29.30
2008,08,16,12,21,29.30
2008,08,16,12,22,29.30
2008,08,16,12,23,29.30
2008,08,16,12,24,29.30
2008,08,16,12,25,29.30
2008,08,16,12,26,29.30
2008,08,16,12,27,29.40
2008,08,16,12,28,29.50
2008,08,16,12,29,29.50
2008,08,16,12,30,29.50
2008,08,16,12,31,29.40
2008,08,16,12,32,29.50
2008,08,16,12,33,29.60
2008,08,16,12,34,29.60
2008,08,16,12,35,29.70
2008,08,16,12,36,29.70
2008,08,16,12,37,29.70
2008,08,16,12,38,29.80
2008,08,16,12,39,29.80
2008,08,16,12,40,29.80
2008,08,16,12,41,29.80
2008,08,16,12,42,29.90
2008,08,16,12,43,29.90
2008,08,16,12,44,29.80
2008,08,16,12,45,29.70
2008,08,16,12,46,29.70
2008,08,16,12,47,29.70
2008,08,16,12,48,29.70
2008,08,16,12,49,29.70
2008,08,16,12,50,29.70
2008,08,16,12,51,29.70
2008,08,16,12,52,29.70
2008,08,16,12,53,29.70
2008,08,16,12,54,29.80
2008,08,16,12,55,29.90
2008,08,16,12,56,30.00
2008,08,16,12,57,30.00
2008,08,16,12,58,29.90
2008,08,16,12,59,29.90
2008,08,16,13,00,30.00
2008,08,16,13,01,30.00
2008,08,16,13,02,30.10
2008,08,16,13,03,30.20
2008,08,16,13,04,30.30
2008,08,16,13,05,30.50
2008,08,16,13,06,30.60
2008,08,16,13,07,30.70
2008,08,16,13,08,30.80
2008,08,16,13,09,30.80
2008,08,16,13,10,30.80
2008,08,16,13,11,30.80
2008,08,16,13,12,30.80
2008,08,16,13,13,30.80
2008,08,16,13,14,30.80
2008,08,16,13,15,30.80
2008,08,16,13,16,30.60
2008,08,16,13,17,30.60
2008,08,16,13,18,30.60
2008,08,16,13,19,30.50
2008,08,16,13,20,30.40
2008,08,16,13,21,30.30
2008,08,16,13,22,30.30
2008,08,16,13,23,30.30
2008,08,16,13,24,30.20
2008,08,16,13,25,30.10
2008,08,16,13,26,30.10
2008,08,16,13,27,30.10
2008,08,16,13,28,30.10
2008,08,16,13,29,30.10
2008,08,16,13,30,30.20
2008,08,16,13,31,30.30
2008,08,16,13,32,30.40
2008,08,16,13,33,30.60
2008,08,16,13,34,30.60
2008,08,16,13,35,30.60
2008,08,16,13,36,30.60
2008,08,16,13,37,30.60
2008,08,16,13,38,30.50
2008,08,16,13,39,30.50
2008,08,16,13,40,30.50
2008,08,16,13,41,30.50
2008,08,16,13,42,30.50
2008,08,16,13,43,30.50
2008,08,16,13,44,30.50
2008,08,16,13,45,30.50
2008,08,16,13,46,30.60
2008,08,16,13,47,30.70
2008,08,16,13,48,30.80
2008,08,16,13,49,30.80
2008,08,16,13,50,30.90
2008,08,16,13,51,30.90
2008,08,16,13,52,30.90
2008,08,16,13,53,30.90
2008,08,16,13,54,30.90
2008,08,16,13,55,30.80
2008,08,16,13,56,30.70
2008,08,16,13,57,30.60
2008,08,16,13,58,30.60
2008,08,16,13,59,30.60
2008,08,16,14,00,30.60
2008,08,16,14,01,30.60
2008,08,16,14,02,30.60
2008,08,16,14,03,30.70
2008,08,16,14,04,30.70
2008,08,16,14,05,30.70
2008,08,16,14,06,30.70
2008,08,16,14,07,30.80
2008,08,16,14,08,30.90
2008,08,16,14,09,31.00
2008,08,16,14,10,31.10
2008,08,16,14,11,31.20
2008,08,16,14,12,31.30
2008,08,16,14,13,31.30
2008,08,16,14,14,31.30
2008,08,16,14,15,31.30
2008,08,16,14,16,31.40
2008,08,16,14,17,31.40
2008,08,16,14,18,31.40
2008,08,16,14,19,31.40
2008,08,16,14,20,31.50
2008,08,16,14,21,31.60
2008,08,16,14,22,31.60
2008,08,16,14,23,31.70
2008,08,16,14,24,31.80
2008,08,16,14,25,31.90
2008,08,16,14,26,31.90
2008,08,16,14,27,31.90
2008,08,16,14,28,31.90
2008,08,16,14,29,31.90
2008,08,16,14,30,31.90
2008,08,16,14,31,31.80
2008,08,16,14,32,31.80
2008,08,16,14,33,31.80
2008,08,16,14,34,31.80
2008,08,16,14,35,31.80
2008,08,16,14,36,31.90
2008,08,16,14,37,31.90
2008,08,16,14,38,31.90
2008,08,16,14,39,31.80
2008,08,16,14,40,31.80
2008,08,16,14,41,31.80
2008,08,16,14,42,31.90
2008,08,16,14,43,31.90
2008,08,16,14,44,32.00
2008,08,16,14,45,32.00
2008,08,16,14,46,32.10
2008,08,16,14,47,32.10
2008,08,16,14,48,32.10
2008,08,16,14,49,32.20
2008,08,16,14,50,32.30
2008,08,16,14,51,32.30
2008,08,16,14,52,32.30
2008,08,16,14,53,32.20
2008,08,16,14,54,32.10
2008,08,16,14,55,31.90
2008,08,16,14,56,31.90
2008,08,16,14,57,31.80
2008,08,16,14,58,31.80
2008,08,16,14,59,31.80
2008,08,16,15,00,31.70
2008,08,16,15,01,31.70
2008,08,16,15,02,31.70
2008,08,16,15,03,31.70
2008,08,16,15,04,31.70
2008,08,16,15,05,31.70
2008,08,16,15,06,31.70
2008,08,16,15,07,31.60
2008,08,16,15,08,31.60
2008,08,16,15,09,31.60
2008,08,16,15,10,31.50
2008,08,16,15,11,31.40
2008,08,16,15,12,31.20
2008,08,16,15,13,31.10
2008,08,16,15,14,31.10
2008,08,16,15,15,31.10
2008,08,16,15,16,31.10
2008,08,16,15,17,31.10
2008,08,16,15,18,31.10
2008,08,16,15,19,31.00
2008,08,16,15,20,31.00
2008,08,16,15,21,30.90
2008,08,16,15,22,30.90
2008,08,16,15,23,30.80
2008,08,16,15,24,30.80
2008,08,16,15,25,30.80
2008,08,16,15,26,30.70
2008,08,16,15,27,30.70
2008,08,16,15,28,30.60
2008,08,16,15,29,30.60
2008,08,16,15,30,30.60
2008,08,16,15,31,30.60
2008,08,16,15,32,30.60
2008,08,16,15,33,30.60
2008,08,16,15,34,30.50
2008,08,16,15,35,30.50
2008,08,16,15,36,30.40
2008,08,16,15,37,30.40
2008,08,16,15,38,30.30
2008,08,16,15,39,30.30
2008,08,16,15,40,30.30
2008,08,16,15,41,30.30
2008,08,16,15,42,30.20
2008,08,16,15,43,30.20
2008,08,16,15,44,30.10
2008,08,16,15,45,30.10
2008,08,16,15,46,30.10
2008,08,16,15,47,30.10
2008,08,16,15,48,30.00
2008,08,16,15,49,30.00
2008,08,16,15,50,30.00
2008,08,16,15,51,30.00
2008,08,16,15,52,30.00
2008,08,16,15,53,29.90
2008,08,16,15,54,29.90
2008,08,16,15,55,29.90
2008,08,16,15,56,29.90
2008,08,16,15,57,29.90
2008,08,16,15,58,29.90
2008,08,16,15,59,29.90
2008,08,16,16,00,29.90
2008,08,16,16,01,29.90
2008,08,16,16,02,29.90
2008,08,16,16,03,29.90
2008,08,16,16,04,30.00
2008,08,16,16,05,29.90
2008,08,16,16,06,30.00
2008,08,16,16,07,30.00
2008,08,16,16,08,30.00
2008,08,16,16,09,30.00
2008,08,16,16,10,30.00
2008,08,16,16,11,30.10
2008,08,16,16,12,30.10
2008,08,16,16,13,30.10
2008,08,16,16,14,30.10
2008,08,16,16,15,30.10
2008,08,16,16,16,30.10
2008,08,16,16,17,30.10
2008,08,16,16,18,30.10
2008,08,16,16,19,30.10
2008,08,16,16,20,30.10
2008,08,16,16,21,30.10
2008,08,16,16,22,30.10
2008,08,16,16,23,30.10
2008,08,16,16,24,30.10
2008,08,16,16,25,30.10
2008,08,16,16,26,30.10
2008,08,16,16,27,30.10
2008,08,16,16,28,30.10
2008,08,16,16,29,30.10
2008,08,16,16,30,30.10
2008,08,16,16,31,30.10
2008,08,16,16,32,30.10
2008,08,16,16,33,30.10
2008,08,16,16,34,30.10
2008,08,16,16,35,30.00
2008,08,16,16,36,30.00
2008,08,16,16,37,30.00
2008,08,16,16,38,30.00
2008,08,16,16,39,29.90
2008,08,16,16,40,29.90
2008,08,16,16,41,29.90
2008,08,16,16,42,29.90
2008,08,16,16,43,29.90
2008,08,16,16,44,29.90
2008,08,16,16,45,29.90
2008,08,16,16,46,29.90
2008,08,16,16,47,29.80
2008,08,16,16,48,29.80
2008,08,16,16,49,29.80
2008,08,16,16,50,29.80
2008,08,16,16,51,29.80
2008,08,16,16,52,29.80
2008,08,16,16,53,29.80
2008,08,16,16,54,29.80
2008,08,16,16,55,29.80
2008,08,16,16,56,29.80
2008,08,16,16,57,29.80
2008,08,16,16,58,29.80
2008,08,16,16,59,29.80
2008,08,16,17,00,29.80
2008,08,16,17,01,29.80
2008,08,16,17,02,29.80
2008,08,16,17,03,29.80
2008,08,16,17,04,29.80
2008,08,16,17,05,29.80
2008,08,16,17,06,29.80
2008,08,16,17,07,29.80
2008,08,16,17,08,29.80
2008,08,16,17,09,29.80
2008,08,16,17,10,29.80
2008,08,16,17,11,29.80
2008,08,16,17,12,29.80
2008,08,16,17,13,29.70
2008,08,16,17,14,29.70
2008,08,16,17,15,29.70
2008,08,16,17,16,29.70
2008,08,16,17,17,29.70
2008,08,16,17,18,29.70
2008,08,16,17,19,29.70